Villas, NJ

5:55 AM EDT on September 25, 2016 (GMT -0400)
Cape May County

Weather History for KWWD - January, 2013

Change the Weather History Date:

Sunday, January 20, 2013

  Actual Average Record
Temperature  
Mean Temperature 46 °F -  
Max Temperature 55 °F 36 °F 55 °F (2013)
Min Temperature 37 °F 25 °F 19 °F (2008)
Degree Days  
Heating Degree Days 19    
Moisture  
Dew Point 28 °F    
Average Humidity 49    
Maximum Humidity 61    
Minimum Humidity 36    
Precipitation  
Precipitation 0.00 in - - ()
Sea Level Pressure  
Sea Level Pressure 29.91 in    
Wind  
Wind Speed 15 mph (WSW)    
Max Wind Speed 20 mph    
Max Gust Speed 28 mph    
Visibility 10 miles    
Events      
Averages and records for this station are not official NWS values.
T = Trace of Precipitation, MM = Missing Value Source: NWS Daily Summary

Daily Weather History Graph

Daily Weather History Graph

Search for Another Location

Airport or City:

Trip Planner

Search our weather history database for the weather conditions in past years. The results will help you decide how hot, cold, wet, or windy it might be!

Date:

Astronomy

Jan. 20, 2013 Rise Set
Actual Time 7:14 AM EST 5:07 PM EST
Civil Twilight 6:45 AM EST 5:36 PM EST
Nautical Twilight 6:13 AM EST 6:08 PM EST
Astronomical Twilight 5:41 AM EST 6:40 PM EST
Moon 12:06 PM EST (1/20) 1:44 AM EST (1/20)
Length of Visible Light 10h 50m
Length of Day
9h 52m
Waxing Gibbous, 66% of the Moon is Illuminated
Jan 20
Waxing Gibbous
Jan 26
Full
Feb 3
Last Quarter
Feb 10
New
Feb 17
First Quarter

Hourly Weather History & Observations

Time (EST) Temp. Windchill Dew Point Humidity Pressure Visibility Wind Dir Wind Speed Gust Speed Precip Events Conditions
12:15 AM 42.8 °F 34.3 °F 28.4 °F 57% 30.01 in 10.0 mi SSW 19.6 mph 26.5 mph N/A   Clear
12:35 AM 42.8 °F 35.1 °F 28.4 °F 57% 29.99 in 10.0 mi SSW 16.1 mph - N/A   Clear
12:55 AM 42.8 °F 34.8 °F 28.4 °F 57% 29.98 in 10.0 mi SSW 17.3 mph 23.0 mph N/A   Clear
1:15 AM 42.8 °F 35.4 °F 28.4 °F 57% 29.98 in 10.0 mi SSW 15.0 mph 23.0 mph N/A   Clear
1:35 AM 42.8 °F 35.1 °F 28.4 °F 57% 29.97 in 10.0 mi SSW 16.1 mph 23.0 mph N/A   Clear
1:55 AM 42.8 °F 35.4 °F 28.4 °F 57% 29.96 in 10.0 mi SSW 15.0 mph 20.7 mph N/A   Clear
2:15 AM 42.8 °F 35.4 °F 28.4 °F 57% 29.96 in 10.0 mi SSW 15.0 mph 21.9 mph N/A   Clear
2:35 AM 42.8 °F 34.8 °F 28.4 °F 57% 29.95 in 10.0 mi SSW 17.3 mph 24.2 mph N/A   Clear
2:55 AM 44.6 °F 37.4 °F 28.4 °F 53% 29.95 in 10.0 mi SSW 16.1 mph 24.2 mph N/A   Clear
3:15 AM 42.8 °F 34.8 °F 28.4 °F 57% 29.93 in 10.0 mi SSW 17.3 mph 27.6 mph N/A   Clear
3:35 AM 42.8 °F 34.8 °F 28.4 °F 57% 29.92 in 10.0 mi SSW 17.3 mph 24.2 mph N/A   Clear
3:55 AM 44.6 °F 37.8 °F 28.4 °F 53% 29.91 in 10.0 mi SW 15.0 mph 25.3 mph N/A   Clear
4:15 AM 44.6 °F 37.2 °F 28.4 °F 53% 29.91 in 10.0 mi SW 17.3 mph 23.0 mph N/A   Clear
4:35 AM 44.6 °F 37.2 °F 28.4 °F 53% 29.90 in 10.0 mi SW 17.3 mph 25.3 mph N/A   Clear
4:55 AM 44.6 °F 37.4 °F 28.4 °F 53% 29.89 in 10.0 mi SW 16.1 mph 25.3 mph N/A   Clear
5:15 AM 44.6 °F 37.4 °F 28.4 °F 53% 29.88 in 10.0 mi SW 16.1 mph 23.0 mph N/A   Clear
5:35 AM 44.6 °F 37.4 °F 28.4 °F 53% 29.88 in 10.0 mi SW 16.1 mph - N/A   Clear
5:55 AM 44.6 °F 37.2 °F 28.4 °F 53% 29.87 in 10.0 mi SW 17.3 mph 23.0 mph N/A   Clear
6:15 AM 44.6 °F 37.4 °F 28.4 °F 53% 29.87 in 10.0 mi SW 16.1 mph 25.3 mph N/A   Clear
6:35 AM 44.6 °F 37.4 °F 28.4 °F 53% 29.87 in 10.0 mi SW 16.1 mph 24.2 mph N/A   Clear
6:55 AM 44.6 °F 37.4 °F 28.4 °F 53% 29.88 in 10.0 mi SW 16.1 mph 21.9 mph N/A   Clear
7:15 AM 42.8 °F 35.4 °F 30.2 °F 61% 29.87 in 10.0 mi SW 15.0 mph - N/A   Clear
7:35 AM 42.8 °F 35.1 °F 30.2 °F 61% 29.86 in 10.0 mi SW 16.1 mph - N/A   Clear
7:55 AM 42.8 °F 34.3 °F 30.2 °F 61% 29.86 in 10.0 mi SW 19.6 mph 23.0 mph N/A   Clear
8:15 AM 44.6 °F 37.4 °F 30.2 °F 57% 29.87 in 10.0 mi SW 16.1 mph - N/A   Clear
8:35 AM 44.6 °F 37.8 °F 30.2 °F 57% 29.87 in 10.0 mi SW 15.0 mph - N/A   Clear
8:55 AM 44.6 °F 37.8 °F 30.2 °F 57% 29.87 in 10.0 mi SW 15.0 mph 21.9 mph N/A   Clear
9:15 AM 46.4 °F 39.8 °F 30.2 °F 53% 29.88 in 10.0 mi SW 16.1 mph 21.9 mph N/A   Clear
9:35 AM 46.4 °F 39.8 °F 30.2 °F 53% 29.88 in 10.0 mi SW 16.1 mph 21.9 mph N/A   Clear
9:55 AM 48.2 °F - 30.2 °F 50% 29.87 in 10.0 mi SW 13.8 mph - N/A   Clear
10:15 AM 48.2 °F - 30.2 °F 50% 29.87 in 10.0 mi SW 16.1 mph - N/A   Clear
10:35 AM 50.0 °F - 32.0 °F 50% 29.87 in 10.0 mi SW 12.7 mph - N/A   Clear
10:55 AM 50.0 °F - 32.0 °F 50% 29.87 in 10.0 mi SW 15.0 mph 21.9 mph N/A   Clear
11:15 AM 51.8 °F - 33.8 °F 50% 29.86 in 10.0 mi WSW 13.8 mph 19.6 mph N/A   Clear
11:35 AM 53.6 °F - 33.8 °F 47% 29.84 in 10.0 mi SW 12.7 mph - N/A   Clear
11:55 AM 53.6 °F - 33.8 °F 47% 29.82 in 10.0 mi WSW 13.8 mph 20.7 mph N/A   Clear
12:15 PM 53.6 °F - 33.8 °F 47% 29.81 in 10.0 mi WSW 13.8 mph - N/A   Clear
12:35 PM - - - N/A% 29.80 in 10.0 mi WSW 16.1 mph 19.6 mph N/A   Clear
12:55 PM - - - N/A% 29.80 in 10.0 mi WSW 13.8 mph 20.7 mph N/A   Clear
1:15 PM - - - N/A% 29.79 in 10.0 mi WSW 16.1 mph 20.7 mph N/A   Clear
1:35 PM 55.4 °F - 33.8 °F 44% 29.80 in 10.0 mi West 12.7 mph 18.4 mph N/A   Clear
1:55 PM - - - N/A% 29.80 in 10.0 mi West 12.7 mph 17.3 mph N/A   Clear
2:15 PM 55.4 °F - 33.8 °F 44% 29.81 in 10.0 mi West 11.5 mph 18.4 mph N/A   Clear
2:35 PM 55.4 °F - 33.8 °F 44% 29.81 in 10.0 mi West 10.4 mph 16.1 mph N/A   Clear
2:55 PM 55.4 °F - 33.8 °F 44% 29.82 in 10.0 mi West 10.4 mph - N/A   Clear
3:15 PM 53.6 °F - 33.8 °F 47% 29.82 in 10.0 mi West 10.4 mph - N/A   Clear
3:35 PM 53.6 °F - 32.0 °F 44% 29.83 in 10.0 mi West 11.5 mph - N/A   Clear
3:55 PM 53.6 °F - 32.0 °F 44% 29.83 in 10.0 mi West 12.7 mph 16.1 mph N/A   Clear
4:15 PM 53.6 °F - 30.2 °F 41% 29.85 in 10.0 mi West 10.4 mph 17.3 mph N/A   Clear
4:35 PM 51.8 °F - 30.2 °F 44% 29.86 in 10.0 mi WNW 11.5 mph - N/A   Clear
4:55 PM 50.0 °F - 30.2 °F 47% 29.86 in 10.0 mi West 11.5 mph 16.1 mph N/A   Clear
5:15 PM 50.0 °F - 30.2 °F 47% 29.87 in 10.0 mi West 10.4 mph - N/A   Clear
5:35 PM 48.2 °F - 30.2 °F 50% 29.89 in 10.0 mi West 9.2 mph - N/A   Clear
5:55 PM 48.2 °F - 30.2 °F 50% 29.91 in 10.0 mi WNW 5.8 mph - N/A   Clear
6:15 PM 48.2 °F - 26.6 °F 43% 29.92 in 10.0 mi WNW 6.9 mph 16.1 mph N/A   Clear
6:35 PM 46.4 °F 41.5 °F 26.6 °F 46% 29.93 in 10.0 mi NW 10.4 mph 16.1 mph N/A   Clear
6:55 PM 46.4 °F 41.5 °F 23.0 °F 40% 29.94 in 10.0 mi NW 10.4 mph 19.6 mph N/A   Clear
7:15 PM 44.6 °F 39.2 °F 24.8 °F 46% 29.95 in 10.0 mi NW 10.4 mph 20.7 mph N/A   Clear
7:35 PM 44.6 °F 38.8 °F 23.0 °F 43% 29.96 in 10.0 mi NW 11.5 mph 18.4 mph N/A   Clear
7:55 PM 44.6 °F 40.2 °F 21.2 °F 39% 29.98 in 10.0 mi NW 8.1 mph 17.3 mph N/A   Clear
8:15 PM 44.6 °F 40.2 °F 21.2 °F 39% 30.00 in 10.0 mi NNW 8.1 mph - N/A   Clear
8:35 PM 42.8 °F 37.5 °F 19.4 °F 39% 30.00 in 10.0 mi NNW 9.2 mph 19.6 mph N/A   Clear
8:55 PM 42.8 °F 36.6 °F 17.6 °F 36% 30.00 in 10.0 mi NW 11.5 mph 19.6 mph N/A   Clear
9:15 PM 41.0 °F 35.2 °F 21.2 °F 45% 30.02 in 10.0 mi NNW 9.2 mph - N/A   Clear
9:35 PM 39.2 °F 32.5 °F 17.6 °F 42% 30.03 in 10.0 mi NNW 10.4 mph 16.1 mph N/A   Clear
9:55 PM 39.2 °F 33.6 °F 17.6 °F 42% 30.04 in 10.0 mi NNW 8.1 mph 18.4 mph N/A   Clear
10:15 PM 39.2 °F 33.0 °F 17.6 °F 42% 30.04 in 10.0 mi NNW 9.2 mph 17.3 mph N/A   Clear
10:35 PM 37.4 °F 30.3 °F 17.6 °F 45% 30.05 in 10.0 mi NNW 10.4 mph 19.6 mph N/A   Clear
10:55 PM 37.4 °F 30.8 °F 17.6 °F 45% 30.06 in 10.0 mi NNW 9.2 mph - N/A   Clear
11:15 PM 37.4 °F 30.8 °F 17.6 °F 45% 30.06 in 10.0 mi NNW 9.2 mph - N/A   Clear
11:35 PM 37.4 °F 30.8 °F 17.6 °F 45% 30.06 in 10.0 mi NNW 9.2 mph 17.3 mph N/A   Clear
11:55 PM 37.4 °F 30.3 °F 17.6 °F 45% 30.06 in 10.0 mi NNW 10.4 mph 18.4 mph N/A   Clear